Home > Weather > Shenzhen > Past weeks

Flag for China Weather for the Past 2 Weeks in Shenzhen, Guangdong, China

Now
59 °F

Clear.


Feels Like: 59 °F
Forecast: 53 / 68 °F
Wind: 1 mph from East

Location: Shenzhen Airport

Current Time: Feb 10, 2016 at 6:36:29 AM

Latest Report: Feb 10, 2016 at 6:00 AM


Visibility: 10 mi

Pressure: 30.04 "Hg

Humidity: 68%

Dew point: 48 °F

Location of ShenzhenLocation

Historic Weather in Shenzhen — Graph

°F

Shenzhen Temperature Yesterday

Maximum temperature yesterday: 70 °F (at 12:00 PM)
Minimum temperature yesterday: 48 °F (at 6:00 AM)
Average temperature yesterday: 59 °F

High & Low Weather Summary for the Past Weeks

 TemperatureHumidityPressure
High70 °F (Feb 8, 12:00 PM)100% (Jan 27, 4:00 AM)30.39 "Hg (Jan 27, 4:00 AM)
Low43 °F (Jan 26, 4:00 AM)17% (Feb 7, 1:00 PM)29.98 "Hg (Jan 28, 4:00 PM)
Average56 °F71%30.19 "Hg
* Reported Jan 26 4:00 AM — Feb 10 4:00 AM, Shenzhen, Weather by CustomWeather, © 2016

Note: Actual official high and low records may vary slightly from our data, if they occured in-between our weather recording intervals... More about our weather records

Advertising

Shenzhen Weather History for the Previous 24 Hours

 ConditionsComfort  
Time TempWeatherWind HumidityBarometerVisibility
4:00 AM
Wed, Feb 10
59 °FClear.3 mph72%30.04 "Hg10 mi
3:00 AM59 °FClear.1 mph77%30.04 "Hg10 mi
2:00 AM63 °FPassing clouds.6 mph59%30.07 "HgN/A
1:00 AM63 °FPassing clouds.6 mph59%30.07 "HgN/A
12:00 AM63 °FClear.6 mph59%30.09 "Hg10 mi
11:00 PM
Tue, Feb 9
57 °FClear.No wind88%30.09 "Hg10 mi
10:00 PM59 °FClear.1 mph77%30.09 "Hg10 mi
9:00 PM59 °FPassing clouds.3 mph77%30.09 "HgN/A
8:00 PM61 °FClear.3 mph77%30.09 "Hg10 mi
7:00 PM61 °FClear.1 mph72%30.07 "Hg10 mi
6:00 PM66 °FSunny.1 mph56%30.07 "Hg10 mi
5:00 PM68 °FSunny.1 mph56%30.07 "Hg10 mi
4:00 PM68 °FSunny.6 mph53%30.07 "Hg10 mi
3:00 PM66 °FSunny.8 mph49%30.07 "Hg10 mi
2:00 PM66 °FSunny.8 mph52%30.09 "Hg10 mi
1:00 PM66 °FPassing clouds.8 mph49%30.15 "HgN/A
12:00 PM70 °FScattered clouds.6 mph33%30.18 "HgN/A
11:00 AM66 °FScattered clouds.6 mph32%30.21 "HgN/A
10:00 AM63 °FPassing clouds.6 mph39%30.21 "HgN/A
9:00 AM57 °FPassing clouds.6 mph48%30.21 "HgN/A
8:00 AM52 °FPassing clouds.6 mph67%30.18 "HgN/A
7:00 AM50 °FSunny.3 mph62%30.18 "Hg10 mi
6:00 AM48 °FClear.3 mph76%30.18 "Hg10 mi
Weather by CustomWeather, © 2016

See weather overviewHow to use our weather pages